BREEZE-M R/B (44458 NORAD) Tracking and Keplerian Element Data

This shows tracking and keplerian element data for the satellite.

Feedback or suggestion? Click here.




ElementValue
Catalog44458
NameBREEZE-M R/B
Epoch Orbit16
Epoch Day244.52432401
Epoch Year2019
RAAN11.1735
Inclination0.1627
Eccentricity0.0723692
Argument of Perigee146.3468
Mean Anonmoly205.8278
Mean Motion0.90283144
Decay Rate-1.95E-06
L11 44458U 19048B 19244.52432401 -.00000195 00000-0 00000+0 0 9993
L22 44458 0.1627 11.1735 0723692 146.3468 205.8278 0.90283144 162

Live tracking and technical data element details for BREEZE-M R/B (NORAD 44458). BREEZE-M R/B can be tracked NOW for your location showing map with azimuth and elevation plus other details from your city location.

Track the satellite on the map from your city or location and see movement details for azimuth, elevation, latitude, longitude, range, height, and movement on the map or in text.







IsCatalogInMostPopularTable: catalog: 44458, numindb: 15
Update: records affected: 1



GetName: 44458 BREEZE-M R/B

Hit Count: updated at: Thu, 05 Dec 2019 16:47:04 GMT